STARLINK-2396, 47815

Orbit data source: Space-Track

STARLINK-2396, 47815 is a payload satellite owned by SpaceX/Seattle (US) in LEO that was launched on Thu, 11 Mar 2021 UTC via an FALCON 9 launch vehicle from the Air Force Eastern Test Range (AFETR). Payload-class satellites include a variety of spacecraft equipped with specific instruments for various scientific and technological missions. These include communications satellites like Starlink; space stations such as the ISS; scientific satellites like the Hubble; Earth observation satellites from companies like Planet Labs, Umbra, and HawkEye 360; GPS; miniature CubeSats for education and research; and military/defense satellites.

Loading next visibility...
Identifier
47815, 2021-018AE
Orbit
LEO
Country
Flag of USUS
Related business
Manufacturer
SpaceX/Seattle
Mission
Operational Commercial Communications
Bus & Motor
STARLINK, Unknown motor
Mass
260 kg wet, ~248 kg dry
Launch date (UTC)
2021-03-11 (5 years ago)
Launch vehicle
FALCON 9
Launch site
Air Force Eastern Test Range (AFETR)
Object type
Payload
Rocket body
Debris
Shape & HBR
Box + 1 Pan, 10.1 m
Radar Cross Section
13.562 m², Large (>1 m²)

Expand to show TLE details & history
Last TLE update: 2 days ago

TLE from 2 days ago
0 STARLINK-2396
1 47815U 21018AE  26171.19188534 -.00000130  00000-0  75888-5 0  9999
2 47815  53.1583 125.8325 0001227  89.0875 271.0267 15.31696008292420
Epoch: 2026-06-20T04:36Z
TLE epoch observation values (Epoch: 2026-06-20T04:36:18.893Z)
Latitude
-0.00001°
Longitude
148.34373°
Altitude
471.637 km
Speed
7.631 km/s
True Right ascension
08h 23m 19s
True Declination
0° 00' 00"
Sunlit
Object was in daylight at epoch
Visualization orbit readout
Latitude
Unknown
Longitude
Unknown
Altitude
Unknown
Speed
Unknown
Apparent Right ascension
Unknown
Apparent Declination
Unknown
Sunlit
N/A
Visualization observer readout
Local Sidereal Time
21:46:55
Azimuth
Unknown
Elevation
Unknown
Doppler factor
Unknown
Orbital elements
Apogee altitude
471.849 km
Perigee altitude
470.168 km
Semi-major axis
6,849.146 km
Eccentricity
0.00012
Inclination
53.1583°
RAAN
125.8325°
Arg. of periapsis
89.0875°
True anomaly
271.01264°
Mean anomaly
271.0267°
Eccentric anomaly
271.01967°
Mean motion
3.82903 °/min
Orbital period
94.02 mins
BSTAR
0.0000075888
Loading maneuver chart data...
Computing Atmospheric mass density...

Documentation

Showing up to 5 results
|